Hourly Weather Otrzep

Today, 24 July, Saturday

Time Temperature Precipitation Wind Pressure Humidity
00:00 +17°C° 0 mm 2 mps 749 mmHg 78%
01:00 +17°C° 0 mm 2 mps 749 mmHg 78%
02:00 +17°C° 0 mm 2 mps 749 mmHg 78%
03:00 +17°C° 0 mm 2 mps 748 mmHg 77%
04:00 +17°C° 0 mm 2 mps 748 mmHg 77%
05:00 +18°C° 0 mm 2 mps 748 mmHg 73%
06:00 +19°C° 0 mm 2 mps 748 mmHg 69%
07:00 +20°C° 0 mm 2 mps 748 mmHg 65%
08:00 +21°C° 0 mm 2 mps 748 mmHg 59%
09:00 +24°C° 0 mm 2 mps 748 mmHg 53%
10:00 +25°C° 0 mm 3 mps 749 mmHg 46%
11:00 +26°C° 0 mm 3 mps 748 mmHg 43%
12:00 +27°C° 0 mm 3 mps 748 mmHg 40%
13:00 +28°C° 0 mm 3 mps 748 mmHg 38%
14:00 +27°C° 0 mm 3 mps 748 mmHg 40%
15:00 +27°C° 0 mm 3 mps 748 mmHg 43%
16:00 +26°C° 0 mm 2 mps 748 mmHg 46%
17:00 +25°C° 0 mm 2 mps 748 mmHg 50%
18:00 +24°C° 0 mm 3 mps 747 mmHg 53%
19:00 +22°C° 0 mm 3 mps 747 mmHg 57%
20:00 +22°C° 0 mm 3 mps 747 mmHg 60%
21:00 +21°C° 0 mm 3 mps 747 mmHg 63%
22:00 +20°C° 0 mm 3 mps 748 mmHg 65%
23:00 +19°C° 0 mm 3 mps 747 mmHg 70%

Tomorrow, 25 July, Sunday

Time Temperature Precipitation Wind Pressure Humidity
00:00 +18°C° 0 mm 3 mps 747 mmHg 75%
01:00 +18°C° 0 mm 3 mps 747 mmHg 80%
02:00 +17°C° 0 mm 3 mps 747 mmHg 82%
03:00 +17°C° 0 mm 3 mps 747 mmHg 84%
04:00 +16°C° 0 mm 3 mps 747 mmHg 86%
05:00 +18°C° 0 mm 3 mps 747 mmHg 78%
06:00 +20°C° 0 mm 3 mps 747 mmHg 69%
07:00 +22°C° 0 mm 4 mps 747 mmHg 61%
08:00 +23°C° 0 mm 4 mps 747 mmHg 55%
09:00 +26°C° 0 mm 4 mps 747 mmHg 49%
10:00 +28°C° 0 mm 4 mps 747 mmHg 43%
11:00 +29°C° 0 mm 4 mps 746 mmHg 41%
12:00 +30°C° 0 mm 4 mps 746 mmHg 39%
13:00 +31°C° 0 mm 3 mps 746 mmHg 37%
14:00 +30°C° 0 mm 3 mps 746 mmHg 41%
15:00 +29°C° 0 mm 3 mps 746 mmHg 46%
16:00 +28°C° 0 mm 3 mps 746 mmHg 51%
17:00 +26°C° 0.6 mm 3 mps 746 mmHg 61%
18:00 +24°C° 0.6 mm 2 mps 746 mmHg 72%
19:00 +21°C° 0.6 mm 2 mps 746 mmHg 82%
20:00 +21°C° 0.2 mm 2 mps 746 mmHg 83%
21:00 +20°C° 0.2 mm 2 mps 747 mmHg 84%
22:00 +20°C° 0.2 mm 2 mps 747 mmHg 85%
23:00 +20°C° 0 mm 2 mps 747 mmHg 85%

Day after tomorrow, 26 July, Monday

Time Temperature Precipitation Wind Pressure Humidity
00:00 +19°C° 0 mm 2 mps 747 mmHg 85%
01:00 +19°C° 0 mm 2 mps 747 mmHg 85%
02:00 +19°C° 0 mm 2 mps 747 mmHg 86%
03:00 +19°C° 0 mm 2 mps 746 mmHg 86%
04:00 +19°C° 0 mm 2 mps 746 mmHg 87%
05:00 +19°C° 0 mm 2 mps 746 mmHg 85%
06:00 +20°C° 0 mm 2 mps 746 mmHg 84%
07:00 +20°C° 0 mm 2 mps 746 mmHg 83%
08:00 +23°C° 0 mm 2 mps 746 mmHg 75%
09:00 +24°C° 0 mm 2 mps 746 mmHg 68%
10:00 +26°C° 0 mm 2 mps 746 mmHg 61%
11:00 +26°C° 0 mm 2 mps 746 mmHg 59%
12:00 +27°C° 0 mm 2 mps 746 mmHg 57%
13:00 +28°C° 0 mm 2 mps 746 mmHg 55%
14:00 +27°C° 0.2 mm 2 mps 746 mmHg 57%
15:00 +27°C° 0.2 mm 2 mps 746 mmHg 60%
16:00 +26°C° 0.2 mm 1 mps 745 mmHg 63%
17:00 +26°C° 0.2 mm 1 mps 745 mmHg 67%
18:00 +25°C° 0.2 mm 1 mps 745 mmHg 71%
19:00 +24°C° 0.2 mm 1 mps 745 mmHg 75%
20:00 +23°C° 0.1 mm 1 mps 745 mmHg 78%
21:00 +22°C° 0.1 mm 1 mps 746 mmHg 81%
22:00 +19°C° 0.1 mm 0 mps 746 mmHg 84%
23:00 +21°C° 0.1 mm 1 mps 746 mmHg 86%

27 July, Tuesday

Time Temperature Precipitation Wind Pressure Humidity
00:00 +20°C° 0.1 mm 2 mps 746 mmHg 88%
01:00 +19°C° 0.1 mm 3 mps 746 mmHg 90%
02:00 +19°C° 0 mm 2 mps 746 mmHg 90%
03:00 +19°C° 0 mm 2 mps 746 mmHg 90%
04:00 +19°C° 0 mm 2 mps 746 mmHg 90%
05:00 +20°C° 0 mm 2 mps 746 mmHg 85%
06:00 +21°C° 0 mm 2 mps 746 mmHg 81%
07:00 +22°C° 0 mm 3 mps 747 mmHg 77%
08:00 +24°C° 0.1 mm 3 mps 747 mmHg 69%
09:00 +26°C° 0.1 mm 3 mps 747 mmHg 61%
10:00 +28°C° 0.1 mm 3 mps 747 mmHg 53%
11:00 +28°C° 0 mm 4 mps 747 mmHg 49%
12:00 +29°C° 0 mm 4 mps 747 mmHg 45%
13:00 +30°C° 0 mm 4 mps 747 mmHg 41%
14:00 +30°C° 0 mm 4 mps 747 mmHg 41%
15:00 +29°C° 0 mm 4 mps 747 mmHg 40%
16:00 +29°C° 0 mm 4 mps 747 mmHg 40%
17:00 +28°C° 0 mm 3 mps 747 mmHg 47%
18:00 +26°C° 0 mm 2 mps 747 mmHg 54%
19:00 +25°C° 0 mm 2 mps 747 mmHg 61%
20:00 +24°C° 0 mm 2 mps 747 mmHg 65%
21:00 +23°C° 0 mm 1 mps 747 mmHg 69%
22:00 +22°C° 0 mm 1 mps 747 mmHg 73%
23:00 +20°C° 0 mm 2 mps 747 mmHg 75%

28 July, Wednesday

Time Temperature Precipitation Wind Pressure Humidity
00:00 +20°C° 0 mm 2 mps 747 mmHg 77%
01:00 +19°C° 0 mm 2 mps 747 mmHg 79%
02:00 +19°C° 0 mm 2 mps 746 mmHg 80%
03:00 +19°C° 0 mm 2 mps 746 mmHg 80%
04:00 +18°C° 0 mm 2 mps 746 mmHg 81%
05:00 +20°C° 0 mm 3 mps 746 mmHg 75%
06:00 +21°C° 0 mm 3 mps 746 mmHg 69%
07:00 +24°C° 0 mm 3 mps 746 mmHg 63%
08:00 +25°C° 0 mm 3 mps 746 mmHg 58%
09:00 +27°C° 0 mm 4 mps 746 mmHg 53%
10:00 +28°C° 0 mm 4 mps 745 mmHg 48%
11:00 +28°C° 0 mm 4 mps 745 mmHg 51%
12:00 +27°C° 0 mm 4 mps 745 mmHg 53%
13:00 +26°C° 0 mm 3 mps 745 mmHg 56%
14:00 +23°C° 1.9 mm 4 mps 745 mmHg 67%
15:00 +22°C° 1.9 mm 4 mps 745 mmHg 79%
16:00 +20°C° 1.9 mm 5 mps 745 mmHg 91%
17:00 +20°C° 0.1 mm 4 mps 746 mmHg 90%
18:00 +20°C° 0.1 mm 4 mps 746 mmHg 90%
19:00 +20°C° 0.1 mm 3 mps 746 mmHg 89%
20:00 +19°C° 0 mm 3 mps 746 mmHg 91%
21:00 +18°C° 0 mm 2 mps 746 mmHg 93%
22:00 +17°C° 0 mm 2 mps 747 mmHg 95%
23:00 +17°C° 0 mm 2 mps 747 mmHg 95%

29 July, Thursday

Time Temperature Precipitation Wind Pressure Humidity
00:00 +16°C° 0 mm 2 mps 747 mmHg 94%
01:00 +16°C° 0 mm 2 mps 747 mmHg 93%
02:00 +15°C° 0 mm 2 mps 747 mmHg 94%
03:00 +15°C° 0 mm 2 mps 747 mmHg 94%
04:00 +15°C° 0 mm 2 mps 747 mmHg 94%
05:00 +16°C° 0 mm 2 mps 747 mmHg 88%
06:00 +17°C° 0 mm 2 mps 748 mmHg 82%
07:00 +18°C° 0 mm 3 mps 748 mmHg 75%
08:00 +20°C° 0 mm 3 mps 748 mmHg 66%
09:00 +22°C° 0 mm 3 mps 748 mmHg 56%
10:00 +25°C° 0 mm 4 mps 748 mmHg 47%
11:00 +26°C° 0 mm 4 mps 747 mmHg 43%
12:00 +27°C° 0 mm 4 mps 747 mmHg 40%
13:00 +28°C° 0 mm 4 mps 747 mmHg 37%
14:00 +28°C° 0 mm 4 mps 746 mmHg 37%
15:00 +28°C° 0 mm 4 mps 746 mmHg 37%
16:00 +28°C° 0 mm 4 mps 746 mmHg 37%
17:00 +26°C° 0 mm 3 mps 745 mmHg 43%
18:00 +25°C° 0 mm 2 mps 745 mmHg 49%
19:00 +24°C° 0 mm 1 mps 745 mmHg 55%
20:00 +23°C° 0 mm 1 mps 744 mmHg 56%
21:00 +21°C° 0 mm 2 mps 744 mmHg 57%
22:00 +20°C° 0 mm 2 mps 743 mmHg 57%
23:00 +19°C° 0.2 mm 2 mps 743 mmHg 64%
Show more